NWS747 UWKD-UNBG

Flight info

Callsign NWS747
Flight time N/A
Altitude 35000
Route RIMIP L94 OKETI R234 ABESA P983 AMRAD W914 RIPNI
Aircraft A321/M-SDE3FGHIRWY/LB1

Departure

Time 2026-05-04 13:41
Airport Kazan International Airport (UWKD)

Arrival

Time N/A
Airport Gorno-Altaysk Airport (UNBG)
Time Latitude Longitude Altitude Speed Heading
2026-05-04 13:10 55.60680 49.29664 416 ft 0 kts 35°
2026-05-04 13:25 55.60679 49.29664 416 ft 0 kts 35°
2026-05-04 13:36 55.60690 49.29676 408 ft 6 kts 35°
2026-05-04 13:36 55.60698 49.29778 411 ft 10 kts 112°
2026-05-04 13:36 55.60664 49.29867 412 ft 8 kts 126°
2026-05-04 13:36 55.60634 49.29939 416 ft 7 kts 126°
2026-05-04 13:37 55.60609 49.30002 413 ft 8 kts 124°
2026-05-04 13:37 55.60569 49.30091 413 ft 10 kts 143°
2026-05-04 13:37 55.60511 49.30065 405 ft 10 kts 216°
2026-05-04 13:37 55.60453 49.29992 416 ft 12 kts 214°
2026-05-04 13:38 55.60345 49.29889 412 ft 21 kts 201°
2026-05-04 13:38 55.60209 49.29920 416 ft 19 kts 154°
2026-05-04 13:38 55.60090 49.30023 414 ft 18 kts 153°
2026-05-04 13:38 55.59980 49.30113 414 ft 16 kts 163°
2026-05-04 13:39 55.59899 49.30087 410 ft 8 kts 204°
2026-05-04 13:39 55.59851 49.30030 417 ft 9 kts 217°
2026-05-04 13:39 55.59836 49.29914 417 ft 10 kts 288°
2026-05-04 13:39 55.59870 49.29816 411 ft 9 kts 306°
2026-05-04 13:40 55.59908 49.29723 416 ft 9 kts 305°
2026-05-04 13:40 55.59998 49.29489 410 ft 53 kts 303°
2026-05-04 13:40 55.60332 49.28629 415 ft 114 kts 304°
2026-05-04 13:40 55.60874 49.27228 415 ft 161 kts 304°
2026-05-04 13:41 55.61579 49.25477 624 ft 182 kts 304°
2026-05-04 13:41 55.62255 49.24189 1144 ft 183 kts 324°
2026-05-04 13:41 55.63489 49.23746 1805 ft 189 kts
2026-05-04 13:42 55.64852 49.27425 2852 ft 201 kts 93°
2026-05-04 13:42 55.64712 49.29933 3204 ft 212 kts 93°
2026-05-04 13:42 55.64614 49.32570 3622 ft 217 kts 94°
2026-05-04 13:42 55.64515 49.35366 3803 ft 239 kts 92°
2026-05-04 13:43 55.64432 49.38478 3957 ft 267 kts 91°
2026-05-04 13:43 55.64369 49.41895 4267 ft 286 kts 90°
2026-05-04 13:43 55.64329 49.45391 4983 ft 288 kts 90°
2026-05-04 13:43 55.64306 49.48920 5816 ft 286 kts 89°
2026-05-04 13:44 55.64299 49.52435 6623 ft 285 kts 88°
2026-05-04 13:44 55.64299 49.55951 7302 ft 289 kts 89°
2026-05-04 13:44 55.64254 49.59553 7882 ft 295 kts 90°
2026-05-04 13:44 55.64155 49.63209 8501 ft 300 kts 92°
2026-05-04 13:45 55.64007 49.66913 9157 ft 304 kts 93°
2026-05-04 13:45 55.63846 49.70662 9808 ft 308 kts 92°
2026-05-04 13:45 55.63719 49.74477 10246 ft 317 kts 91°
2026-05-04 13:45 55.63622 49.78505 10372 ft 337 kts 90°
2026-05-04 13:46 55.63540 49.82769 10501 ft 356 kts 90°
2026-05-04 13:46 55.63458 49.87243 10782 ft 368 kts 90°
2026-05-04 13:46 55.63367 49.91809 11311 ft 372 kts 90°
2026-05-04 13:46 55.63268 49.96407 11914 ft 375 kts 90°
2026-05-04 13:47 55.63163 50.01033 12502 ft 378 kts 90°
2026-05-04 13:47 55.63230 50.05685 13065 ft 378 kts 81°
2026-05-04 13:47 55.63771 50.10234 13620 ft 378 kts 70°
2026-05-04 13:47 55.64740 50.14567 14108 ft 379 kts 64°
2026-05-04 13:48 55.65794 50.18872 14595 ft 382 kts 64°
2026-05-04 13:48 55.66846 50.23202 15066 ft 384 kts 64°
2026-05-04 13:48 55.67902 50.27574 15527 ft 387 kts 64°
2026-05-04 13:48 55.68957 50.31966 15980 ft 389 kts 64°
2026-05-04 13:49 55.70021 50.36407 16445 ft 392 kts 64°
2026-05-04 13:49 55.71090 50.40879 16890 ft 394 kts 64°
2026-05-04 13:49 55.72149 50.45312 17303 ft 397 kts 64°
2026-05-04 13:49 55.73229 50.49840 17705 ft 399 kts 64°
2026-05-04 13:50 55.74313 50.54395 18100 ft 402 kts 64°
2026-05-04 13:50 55.75404 50.58984 18430 ft 404 kts 64°
2026-05-04 13:50 55.76495 50.63586 18767 ft 406 kts 64°
2026-05-04 13:50 55.77593 50.68226 19102 ft 408 kts 64°
2026-05-04 13:51 55.78680 50.72913 19434 ft 411 kts 65°
2026-05-04 13:51 55.79736 50.77653 19773 ft 413 kts 65°
2026-05-04 13:51 55.80791 50.82416 20111 ft 415 kts 65°
2026-05-04 13:51 55.81864 50.87191 20454 ft 417 kts 65°
2026-05-04 13:52 55.84080 50.96789 21180 ft 421 kts 64°
2026-05-04 13:52 55.85212 51.01619 21541 ft 424 kts 64°
2026-05-04 13:52 55.86350 51.06471 21891 ft 426 kts 64°
2026-05-04 13:53 55.87492 51.11357 22250 ft 428 kts 65°
2026-05-04 13:53 55.88634 51.16271 22611 ft 431 kts 65°
2026-05-04 13:53 55.89780 51.21225 22970 ft 433 kts 65°
2026-05-04 13:54 55.92066 51.31175 23615 ft 438 kts 65°
2026-05-04 13:54 55.93220 51.36217 23904 ft 440 kts 65°
2026-05-04 13:54 55.95538 51.46374 24459 ft 444 kts 65°
2026-05-04 13:55 55.96704 51.51498 24734 ft 446 kts 65°
2026-05-04 13:55 55.99093 51.61776 25286 ft 449 kts 64°
2026-05-04 13:55 56.00345 51.66909 25558 ft 451 kts 64°
2026-05-04 13:56 56.01592 51.72082 25820 ft 454 kts 65°
2026-05-04 13:56 56.02813 51.77302 26092 ft 456 kts 66°
2026-05-04 13:56 56.04182 51.88358 26600 ft 464 kts 85°
2026-05-04 13:57 56.04359 51.94136 26855 ft 466 kts 85°
2026-05-04 13:57 56.04552 51.99941 27106 ft 468 kts 85°
2026-05-04 13:58 56.05181 52.17470 27816 ft 473 kts 85°
2026-05-04 13:58 56.05588 52.29239 28230 ft 475 kts 85°
2026-05-04 13:58 56.05782 52.35136 28445 ft 477 kts 85°
2026-05-04 13:59 56.05972 52.41073 28624 ft 477 kts 85°
2026-05-04 13:59 56.06158 52.46998 28886 ft 477 kts 86°
2026-05-04 13:59 56.06518 52.58826 29427 ft 475 kts 86°
2026-05-04 14:00 56.06695 52.64743 29683 ft 475 kts 86°
2026-05-04 14:00 56.07018 52.76537 30148 ft 473 kts 86°
2026-05-04 14:00 56.07167 52.82416 30357 ft 473 kts 86°
2026-05-04 14:01 56.07310 52.88226 30561 ft 472 kts 86°
2026-05-04 14:01 56.07452 52.94101 30769 ft 472 kts 87°
2026-05-04 14:01 56.07734 53.05835 31191 ft 471 kts 87°
2026-05-04 14:02 56.07889 53.11692 31395 ft 471 kts 86°
2026-05-04 14:02 56.08052 53.17544 31607 ft 470 kts 86°
2026-05-04 14:02 56.08209 53.23395 31809 ft 470 kts 87°
2026-05-04 14:02 56.08354 53.29239 32011 ft 470 kts 87°
2026-05-04 14:03 56.08486 53.35091 32212 ft 469 kts 87°
2026-05-04 14:03 56.08609 53.40939 32412 ft 469 kts 87°
2026-05-04 14:03 56.08725 53.46777 32607 ft 469 kts 88°
2026-05-04 14:03 56.08836 53.52610 32811 ft 469 kts 88°
2026-05-04 14:04 56.09060 53.64273 33200 ft 468 kts 87°
2026-05-04 14:04 56.09172 53.70033 33391 ft 468 kts 88°
2026-05-04 14:04 56.09285 53.75859 33580 ft 468 kts 88°
2026-05-04 14:05 56.09500 53.87505 33932 ft 468 kts 88°
2026-05-04 14:05 56.09602 53.93333 34078 ft 468 kts 88°
2026-05-04 14:05 56.09701 53.99173 34213 ft 468 kts 88°
2026-05-04 14:06 56.09797 54.05001 34344 ft 468 kts 88°
2026-05-04 14:06 56.09889 54.10835 34473 ft 468 kts 88°
2026-05-04 14:06 56.09979 54.16669 34595 ft 469 kts 88°
2026-05-04 14:06 56.10066 54.22515 34725 ft 469 kts 88°
2026-05-04 14:07 56.10148 54.28340 34846 ft 469 kts 88°
2026-05-04 14:07 56.10696 54.39935 34873 ft 467 kts 80°
2026-05-04 14:08 56.11719 54.51368 34867 ft 467 kts 81°
2026-05-04 14:08 56.12724 54.62868 34865 ft 467 kts 81°
2026-05-04 14:09 56.14206 54.80140 34865 ft 467 kts 81°
2026-05-04 14:10 56.15668 54.97419 34866 ft 467 kts 81°
2026-05-04 14:10 56.16627 55.08897 34869 ft 467 kts 81°
2026-05-04 14:11 56.17578 55.20431 34868 ft 467 kts 81°
2026-05-04 14:11 56.18829 55.35807 34869 ft 467 kts 82°
2026-05-04 14:12 56.19754 55.47340 34870 ft 467 kts 82°
2026-05-04 14:13 56.21119 55.64664 34866 ft 467 kts 82°
2026-05-04 14:13 56.22023 55.76212 34865 ft 467 kts 82°
2026-05-04 14:14 56.22918 55.87771 34863 ft 467 kts 82°
2026-05-04 14:14 56.24236 56.05124 34871 ft 467 kts 82°
2026-05-04 14:15 56.25949 56.28210 34866 ft 467 kts 82°
2026-05-04 14:16 56.27211 56.45606 34860 ft 467 kts 83°
2026-05-04 14:17 56.28445 56.63023 34853 ft 467 kts 83°
2026-05-04 14:18 56.29670 56.80435 34849 ft 468 kts 83°
2026-05-04 14:19 56.31261 57.03662 34842 ft 469 kts 83°
2026-05-04 14:19 56.32043 57.15349 34842 ft 469 kts 84°
2026-05-04 14:20 56.32813 57.27031 34843 ft 470 kts 84°
2026-05-04 14:20 56.33570 57.38735 34841 ft 470 kts 84°
2026-05-04 14:21 56.34697 57.56339 34839 ft 471 kts 84°
2026-05-04 14:21 56.35435 57.68084 34837 ft 472 kts 84°
2026-05-04 14:22 56.36160 57.79842 34835 ft 472 kts 84°
2026-05-04 14:22 56.36873 57.91616 34835 ft 473 kts 85°
2026-05-04 14:23 56.37922 58.09247 34828 ft 474 kts 85°
2026-05-04 14:24 56.38612 58.21077 34828 ft 474 kts 85°
2026-05-04 14:24 56.39288 58.32924 34830 ft 475 kts 85°
2026-05-04 14:25 56.39956 58.44815 34827 ft 476 kts 85°
2026-05-04 14:25 56.40947 58.62686 34833 ft 477 kts 85°
2026-05-04 14:26 56.41592 58.74641 34839 ft 478 kts 85°